This is the latest recevied weather packets stored in our database for station/object W5GBS-9. If no packets are shown the sender has not sent any weather packets the latest 10 day(s).
| Time | Temp. | Humidity | Pressure | Rain* | Wind** | Luminosity | Snow |
|---|---|---|---|---|---|---|---|
| 1788116106 | 35° C | 100% | 1012.4 hPa | 0 mm | - | - | - |
| 1788115385 | 35° C | 100% | 1012.5 hPa | 0 mm | - | - | - |
| 1788113944 | 35° C | 100% | 1012.8 hPa | 0 mm | - | - | - |
| 1788112502 | 34.44° C | 100% | 1013.1 hPa | 0 mm | - | - | - |
| 1788111781 | 34.44° C | 100% | 1013.6 hPa | 0 mm | - | - | - |
| 1788109620 | 33.33° C | - | - | 0 mm | - | - | - |
| 1788109619 | 33.33° C | 100% | 1013.9 hPa | 0 mm | - | - | - |
| 1788108178 | 32.78° C | 100% | 1014.2 hPa | 0 mm | - | - | - |
| 1788107457 | 32.22° C | 100% | 1014.3 hPa | 0 mm | - | - | - |
| 1788106737 | 31.67° C | 100% | 1014.2 hPa | 0 mm | - | - | - |
| 1788106015 | 31.11° C | 100% | 1014.3 hPa | 0 mm | - | - | - |
| 1788104575 | 30° C | 100% | 1014 hPa | 0 mm | - | - | - |
| 1788103854 | 30° C | 100% | 1014.2 hPa | 0 mm | - | - | - |
| 1788103133 | 29.44° C | 100% | 1014.2 hPa | 0 mm | - | - | - |
| 1788102414 | 28.89° C | 100% | 1014.2 hPa | 0 mm | - | - | - |
| 1788101692 | 28.33° C | 100% | 1014.3 hPa | 0 mm | - | - | - |
| 1788100971 | 27.78° C | 100% | 1014.3 hPa | 0 mm | - | - | - |
| 1788100250 | 27.22° C | 100% | 1014.2 hPa | 0 mm | - | - | - |
| 1788099529 | 27.22° C | 100% | 1014.2 hPa | 0 mm | - | - | - |
| 1788098809 | 26.67° C | 100% | 1014.4 hPa | 0 mm | - | - | - |
| 1788098088 | 26.11° C | 100% | 1014.4 hPa | 0 mm | - | - | - |
| 1788097367 | 26.11° C | 100% | 1014.4 hPa | 0 mm | - | - | - |
| 1788096646 | 25.56° C | 100% | 1014.1 hPa | 0 mm | - | - | - |
| 1788095926 | 25° C | 100% | 1013.9 hPa | 0 mm | - | - | - |
| 1788095204 | 24.44° C | 100% | 1013.8 hPa | 0 mm | - | - | - |
* Rain latest hour (hover to see other rain measurements)
** Current wind speed in m/s (hover to see current wind gust speed)